[[{"header":{"parameterUnit":"m.s-1","parameterCategory":1,"la1":30.2991,"la2":30.254,"lo1":-89.0895,"lo2":-89.0444,"dy":0.0017,"dx":0.0017,"nx":28,"ny":28,"refTime":"2025-01-27T09:00:00:Z","depth":0,"parameterNumber":2,"parameterNumberName":"U-component_of_WINDS"},"data":[0,0,0,0,0,0,0,0,0,0,0,0,0,0,0,0,0,0,0,0,0,0,0,0,0,0,0,0,0,0,0,0,0,0,0,0,0,0,0,0,0,0,0,0,0,0,0,0,0,0,0,0,0,0,0,0,0,0,-0.5984,-0.5986,0,-0.6172,-0.6174,-0.6176,-0.6286,-0.6287,-0.6287,-0.6288,-0.648,-0.6485,-0.6489,0,0,0,0,0,0,0,0,0,0,0,0,0,-0.572,-0.5724,-0.5984,-0.5986,-0.5988,-0.6171,-0.6174,-0.6176,-0.6286,-0.6287,-0.6287,-0.6288,-0.6479,-0.6484,-0.649,0,0,0,0,0,0,0,0,0,0,0,0,0,-0.5864,-0.5726,-0.5983,-0.6065,-0.6075,-0.6171,-0.6174,-0.6177,-0.6286,-0.6287,-0.6288,-0.6288,-0.6477,-0.6484,-0.6491,-0.652,0,0,-0.6512,-0.6515,0,0,0,0,0,0,0,0,-0.5855,-0.5873,-0.6051,-0.606,-0.607,-0.6206,-0.6152,-0.6292,-0.6286,-0.6206,-0.6288,-0.6289,-0.6389,-0.6403,-0.6437,-0.6529,-0.6537,-0.6513,-0.6517,-0.652,-0.6522,0,0,0,0,0,0,0,-0.5845,-0.5866,-0.6058,-0.6053,-0.6065,-0.6093,-0.6114,-0.6179,-0.6291,-0.6213,-0.6221,-0.6242,-0.6394,-0.6429,-0.6442,-0.654,-0.6513,-0.6519,-0.6523,-0.6526,-0.6665,-0.6664,0,0,0,0,0,0,-0.5822,-0.5857,-0.6052,-0.6064,-0.5962,-0.6097,-0.612,-0.6162,-0.6291,-0.6311,-0.6241,-0.6246,-0.6417,-0.6434,-0.6449,-0.6491,-0.652,-0.6527,-0.6531,-0.6665,-0.6665,-0.6664,0,0,0,0,0,0,-0.5816,-0.5839,-0.6045,-0.5963,-0.5991,-0.61,-0.6146,-0.6165,-0.6201,-0.6312,-0.6333,-0.6257,-0.6418,-0.6439,-0.6501,-0.6499,-0.653,-0.6536,-0.6666,-0.6665,-0.6664,-0.6574,0,0,0,0,0,0,-0.5808,-0.5836,-0.5848,-0.5962,-0.5995,-0.6093,-0.6146,-0.6168,-0.6213,-0.6221,-0.6332,-0.6351,-0.6421,-0.649,-0.6508,-0.6509,-0.6542,-0.6666,-0.6665,-0.6664,-0.6578,-0.657,-0.6564,0,0,0,0,0,-0.5798,-0.5816,-0.5848,-0.5871,-0.6013,-0.6093,-0.6112,-0.6191,-0.6212,-0.6225,-0.6296,-0.6348,-0.6496,-0.6495,-0.6517,-0.652,-0.6667,-0.6666,-0.6665,-0.6581,-0.6572,-0.6564,0,0,0,0,0,0,-0.57,-0.5832,-0.587,-0.5925,-0.5997,-0.6111,-0.6131,-0.6179,-0.6247,-0.6252,-0.6348,-0.6372,-0.6424,-0.6479,-0.6475,-0.6554,-0.6587,-0.659,-0.6516,-0.6509,-0.6502,-0.6487,-0.6548,0,0,0,0,0,-0.5684,-0.5738,-0.5852,-0.5889,-0.5923,-0.602,-0.6058,-0.6113,-0.6191,-0.6222,-0.6298,-0.6372,-0.6436,-0.6476,-0.654,-0.6587,-0.6612,-0.6599,-0.6592,-0.6586,-0.6587,-0.6614,-0.6609,-0.666,-0.666,-0.666,0,0,-0.5653,-0.5732,-0.5761,-0.5871,-0.5933,-0.5986,-0.6045,-0.61,-0.614,-0.6231,-0.6293,-0.6351,-0.6441,-0.6494,-0.6522,-0.6541,-0.6578,-0.6584,-0.6579,-0.6583,-0.6612,-0.6607,-0.6602,-0.6659,-0.6659,-0.6659,0,0,-0.5623,-0.5689,-0.5726,-0.5787,-0.588,-0.5944,-0.5953,-0.6061,-0.6102,-0.6167,-0.6235,-0.6285,-0.6393,-0.6453,-0.6497,-0.6488,-0.6537,-0.6507,-0.647,-0.6495,-0.6491,-0.6488,-0.6483,-0.648,-0.6508,-0.6508,-0.6507,0,-0.5572,-0.5655,-0.5739,-0.5789,-0.5835,-0.592,-0.5958,-0.6013,-0.6122,-0.6152,-0.6172,-0.6308,-0.6374,-0.6442,-0.6439,-0.6474,-0.6486,-0.6494,-0.6485,-0.6482,-0.6481,-0.6477,-0.6475,-0.6503,-0.6504,-0.6504,-0.6504,0,-0.5587,-0.5643,-0.5663,-0.5765,-0.5813,-0.5857,-0.5947,-0.5986,-0.6037,-0.6098,-0.6162,-0.6244,-0.6326,-0.6347,-0.6397,-0.6422,-0.643,-0.6466,-0.6501,-0.647,-0.6468,-0.6467,-0.6497,-0.6498,-0.65,-0.6501,0,0,-0.55,-0.5647,-0.5653,-0.5699,-0.5807,-0.5853,-0.59,-0.5979,-0.601,-0.6083,-0.6123,-0.6212,-0.6246,-0.6296,-0.6354,-0.6376,-0.6361,-0.641,-0.6413,-0.6396,-0.6391,-0.6361,-0.6358,-0.6395,-0.6395,-0.6395,-0.6383,0,-0.5484,-0.5572,-0.5648,-0.5708,-0.576,-0.5841,-0.5882,-0.5952,-0.6011,-0.6064,-0.613,-0.619,-0.6231,-0.6262,-0.6287,-0.6357,-0.6361,-0.636,-0.6433,-0.6434,-0.6406,-0.6358,-0.6327,-0.6311,-0.6383,-0.6383,-0.6383,0,-0.5477,-0.5545,-0.5609,-0.571,-0.5735,-0.577,-0.5848,-0.5898,-0.598,-0.6021,-0.6076,-0.6137,-0.619,-0.622,-0.6293,-0.629,-0.6325,-0.6364,-0.6366,-0.6374,-0.6405,-0.6362,-0.6308,-0.6305,-0.6383,-0.6383,-0.6383,0,-0.5404,-0.5511,-0.5563,-0.5601,-0.5721,-0.5744,-0.5795,-0.5877,-0.5919,-0.5988,-0.6016,-0.609,-0.613,-0.6186,-0.6264,-0.628,-0.6329,-0.6366,-0.6364,-0.6361,-0.6369,-0.6367,-0.6317,-0.6394,-0.6394,-0.6394,-0.6394,0,-0.5377,-0.5412,-0.5532,-0.5563,-0.5605,-0.5693,-0.5732,-0.5791,-0.5863,-0.5907,-0.5982,-0.6022,-0.6124,-0.6176,-0.6238,-0.6288,-0.6306,-0.634,-0.6356,-0.6332,-0.6328,-0.6355,-0.6357,-0.6394,-0.6394,-0.6394,-0.6394,0,-0.5301,-0.5383,-0.5445,-0.5553,-0.5581,-0.5607,-0.5699,-0.5733,-0.5796,-0.5851,-0.5869,-0.5967,-0.6032,-0.6116,-0.6208,-0.625,-0.6292,-0.6318,-0.6264,-0.6273,-0.6264,-0.6263,-0.6228,-0.6227,-0.6306,-0.6306,-0.6305,0,-0.5278,-0.5307,-0.5418,-0.5452,-0.55,-0.5555,-0.5598,-0.5686,-0.5728,-0.5822,-0.5844,-0.5914,-0.5975,-0.6075,-0.6155,-0.6225,-0.6252,-0.6235,-0.6263,-0.6237,-0.6249,-0.6245,-0.6247,-0.6227,-0.6226,-0.6225,-0.6224,0,-0.5226,-0.5265,-0.5324,-0.5396,-0.5445,-0.5507,-0.5572,-0.5596,-0.5697,-0.574,-0.5807,-0.5854,-0.5947,-0.6015,-0.6095,-0.6149,-0.6202,-0.6215,-0.6217,-0.6192,-0.6158,-0.6174,-0.6242,-0.6214,-0.6215,-0.6216,-0.6217,-0.6217,-0.5175,-0.5203,-0.5285,-0.5348,-0.5405,-0.5464,-0.55,-0.5567,-0.5624,-0.5705,-0.5754,-0.5818,-0.5899,-0.6012,-0.6063,-0.6114,-0.6135,-0.6139,-0.614,-0.6139,-0.613,-0.6152,-0.613,-0.613,-0.613,-0.6131,-0.6131,0,-0.5125,-0.5181,-0.5238,-0.5325,-0.5374,-0.5421,-0.5495,-0.5532,-0.5588,-0.5657,-0.5715,-0.5791,-0.5857,-0.5942,-0.6015,-0.6039,-0.6066,-0.6055,-0.6053,-0.6064,-0.6109,-0.6098,-0.6032,-0.6032,-0.6032,-0.6032,-0.6032,-0.6032,-0.5104,-0.5154,-0.5202,-0.5281,-0.5338,-0.54,-0.5438,-0.5492,-0.5548,-0.5629,-0.5684,-0.5739,-0.5815,-0.5893,-0.5956,-0.5979,-0.6001,-0.5982,-0.6013,-0.6052,-0.6061,-0.6069,-0.606,-0.5987,-0.5987,-0.5964,-0.5963,-0.5963]},{"header":{"parameterUnit":"m.s-1","parameterCategory":1,"la1":30.2991,"la2":30.254,"lo1":-89.0895,"lo2":-89.0444,"dy":0.0017,"dx":0.0017,"nx":28,"ny":28,"refTime":"2025-01-27T09:00:00:Z","depth":0,"parameterNumber":3,"parameterNumberName":"V-component_of_WINDS"},"data":[0,0,0,0,0,0,0,0,0,0,0,0,0,0,0,0,0,0,0,0,0,0,0,0,0,0,0,0,0,0,0,0,0,0,0,0,0,0,0,0,0,0,0,0,0,0,0,0,0,0,0,0,0,0,0,0,0,0,2.4375,2.4377,0,2.4492,2.4493,2.4494,2.4507,2.4506,2.4505,2.4504,2.462,2.4624,2.4628,0,0,0,0,0,0,0,0,0,0,0,0,0,2.4162,2.4166,2.4375,2.4377,2.4378,2.4491,2.4493,2.4495,2.4508,2.4506,2.4505,2.4503,2.4619,2.4624,2.4629,0,0,0,0,0,0,0,0,0,0,0,0,0,2.4264,2.4167,2.4375,2.4398,2.4402,2.4491,2.4493,2.4495,2.4508,2.4506,2.4504,2.4503,2.4617,2.4623,2.4629,2.4703,0,0,2.4649,2.4651,0,0,0,0,0,0,0,0,2.4258,2.4272,2.4394,2.4397,2.4401,2.4483,2.4461,2.4565,2.4508,2.4467,2.4504,2.4502,2.4576,2.4585,2.4611,2.4708,2.4713,2.4649,2.4653,2.4656,2.4657,0,0,0,0,0,0,0,2.4251,2.4267,2.4421,2.4395,2.44,2.4402,2.4415,2.448,2.453,2.4471,2.4472,2.4486,2.4577,2.4605,2.4614,2.4715,2.4649,2.4655,2.4658,2.4661,2.488,2.4882,0,0,0,0,0,0,2.424,2.4261,2.4418,2.4425,2.4324,2.4408,2.4422,2.4458,2.4529,2.4538,2.4487,2.4486,2.4595,2.4606,2.4618,2.471,2.4656,2.4661,2.4665,2.4878,2.488,2.4882,0,0,0,0,0,0,2.4236,2.4254,2.4413,2.4343,2.4364,2.4413,2.4454,2.4462,2.4489,2.4542,2.455,2.4506,2.4594,2.4609,2.4682,2.4714,2.4664,2.467,2.4875,2.4879,2.4881,2.4894,0,0,0,0,0,0,2.423,2.4252,2.4281,2.4344,2.4368,2.4476,2.4456,2.4465,2.45,2.45,2.4562,2.457,2.4594,2.4673,2.4688,2.4722,2.4675,2.4873,2.4877,2.488,2.4891,2.4897,2.4902,0,0,0,0,0,2.4222,2.4279,2.4283,2.4302,2.4405,2.4478,2.4491,2.4518,2.4503,2.4532,2.4566,2.4568,2.4708,2.468,2.4698,2.4734,2.4871,2.4876,2.488,2.4888,2.4896,2.4902,0,0,0,0,0,0,2.4218,2.4288,2.4293,2.4372,2.4419,2.448,2.4518,2.4525,2.4576,2.4574,2.4604,2.4617,2.469,2.4719,2.4687,2.4809,2.4788,2.4796,2.4788,2.4796,2.4801,2.4793,2.468,0,0,0,0,0,2.4227,2.4281,2.4339,2.4403,2.4427,2.4468,2.4501,2.4518,2.4567,2.4587,2.4626,2.4673,2.4727,2.4763,2.4816,2.4894,2.4909,2.4928,2.4933,2.4938,2.4945,2.4991,2.5,2.4898,2.4898,2.4898,0,0,2.4245,2.429,2.4322,2.4404,2.4442,2.4497,2.4485,2.4543,2.4585,2.4595,2.4668,2.4698,2.4752,2.4829,2.4865,2.4855,2.4977,2.4944,2.4947,2.4952,2.4996,2.5006,2.5015,2.4901,2.49,2.49,0,0,2.4306,2.4345,2.4404,2.4443,2.4502,2.4529,2.4543,2.4603,2.4624,2.4697,2.4707,2.4756,2.4849,2.4888,2.492,2.4996,2.5001,2.5013,2.5043,2.5087,2.5095,2.5102,2.5131,2.5141,2.5019,2.5019,2.5019,0,2.4321,2.4406,2.4433,2.4493,2.4529,2.4541,2.4602,2.4637,2.471,2.4734,2.4723,2.4841,2.4878,2.4965,2.4984,2.5009,2.5026,2.5007,2.5092,2.5099,2.5106,2.5134,2.5145,2.5021,2.502,2.502,2.502,0,2.4422,2.448,2.4521,2.4592,2.4632,2.4691,2.4728,2.4765,2.4778,2.4806,2.488,2.4926,2.4989,2.501,2.5023,2.5099,2.5092,2.5085,2.5065,2.5117,2.5144,2.5154,2.5022,2.5022,2.5021,2.5021,0,0,2.4486,2.4572,2.4586,2.462,2.4685,2.4731,2.479,2.4853,2.4885,2.4934,2.4985,2.5064,2.5059,2.5095,2.5112,2.515,2.521,2.5139,2.5141,2.5152,2.5298,2.5304,2.5316,2.5212,2.5214,2.5216,2.5294,0,2.4556,2.4664,2.4691,2.4783,2.4838,2.485,2.4902,2.4948,2.4976,2.5026,2.5056,2.5112,2.51,2.5123,2.5161,2.5194,2.524,2.5189,2.5261,2.5263,2.5249,2.533,2.5336,2.5407,2.5305,2.5306,2.5308,0,2.4653,2.4706,2.4804,2.4864,2.4888,2.4934,2.4995,2.5042,2.5094,2.5111,2.5152,2.5166,2.5228,2.5203,2.5289,2.5254,2.5285,2.5305,2.5309,2.5318,2.529,2.5342,2.543,2.5442,2.5324,2.5323,2.5322,0,2.4692,2.4787,2.4859,2.4886,2.4957,2.499,2.5021,2.5071,2.5107,2.5159,2.5183,2.5241,2.5273,2.5318,2.5346,2.5325,2.5431,2.5408,2.5448,2.5447,2.5471,2.5469,2.5566,2.5487,2.5487,2.5487,2.5487,0,2.4769,2.4829,2.4878,2.4922,2.4989,2.5018,2.5084,2.5115,2.516,2.521,2.5223,2.527,2.5304,2.5355,2.5377,2.5446,2.546,2.5476,2.5481,2.5476,2.5474,2.5498,2.5494,2.549,2.5489,2.5489,2.5488,0,2.4825,2.4859,2.4938,2.4999,2.5016,2.5063,2.5115,2.5158,2.5186,2.5249,2.5266,2.531,2.5371,2.5403,2.5478,2.5494,2.5571,2.5573,2.5555,2.5557,2.5596,2.5592,2.5713,2.5731,2.5638,2.5639,2.564,0,2.4872,2.4919,2.4985,2.5021,2.5052,2.5108,2.5146,2.5176,2.5215,2.5278,2.5313,2.5375,2.5427,2.5523,2.5561,2.5619,2.5624,2.5662,2.5633,2.5626,2.5626,2.5624,2.5629,2.5668,2.5668,2.5669,2.567,0,2.4954,2.497,2.5024,2.5085,2.5129,2.5178,2.5226,2.5254,2.5292,2.5334,2.5398,2.5438,2.5516,2.5577,2.5638,2.5669,2.5676,2.5679,2.5691,2.5687,2.5675,2.5684,2.5571,2.5676,2.5675,2.5675,2.5675,2.5674,2.5009,2.5051,2.5105,2.5165,2.5205,2.525,2.5294,2.5328,2.5382,2.5449,2.5462,2.553,2.558,2.5664,2.5696,2.5749,2.5741,2.5759,2.5764,2.5768,2.5771,2.5665,2.576,2.5759,2.5759,2.5759,2.5759,0,2.5093,2.5128,2.5183,2.5251,2.5299,2.5301,2.5355,2.5394,2.5454,2.5501,2.5552,2.5624,2.5684,2.5727,2.5788,2.5822,2.5827,2.5837,2.5836,2.5843,2.5773,2.5757,2.5832,2.5832,2.5832,2.5832,2.5832,2.5832,2.5143,2.5215,2.5237,2.5329,2.5364,2.5431,2.5461,2.5503,2.5541,2.5622,2.5673,2.57,2.5746,2.5811,2.5865,2.5876,2.5899,2.5909,2.5921,2.5855,2.5847,2.584,2.5825,2.5913,2.5914,2.5986,2.5987,2.5987]}]]